Weather History for East Milton, MA

Change the Weather History Date:

Wednesday, February 20, 2013

  Actual Average (KBOS) Record (KBOS)
Temperature  
Mean Temperature 32 °F 33 °F  
Max Temperature 39 °F 40 °F 68 °F (1930)
Min Temperature 24 °F 26 °F 0 °F (1950)
Degree Days  
Heating Degree Days 34 32  
Month to date heating degree days 679  
Since 1 July heating degree days 3789  
Cooling Degree Days 0 0  
Month to date cooling degree days 0  
Year to date cooling degree days 0  
Moisture  
Dew Point 17 °F    
Average Humidity 61    
Maximum Humidity 97    
Minimum Humidity 40    
Precipitation  
Precipitation 0.00 in 0.11 in 1.87 in (1934)
Month to date precipitation 2.25  
Year to date precipitation 5.61  
Sea Level Pressure  
Sea Level Pressure 29.66 in    
Wind  
Wind Speed 17 mph (West)    
Max Wind Speed 26 mph    
Max Gust Speed 40 mph    
T = Trace of Precipitation, MM = Missing Value Source: NWS Daily Summary

Daily Weather History Graph

Daily Weather History Graph

Search for Another Location

Airport:

Trip Planner

Search our weather history database for the weather conditions in past years. The results will help you decide how hot, cold, wet, or windy it might be!

Date:

Astronomy

Feb. 20, 2013 Rise Set
Actual Time 6:33 AM EST 5:23 PM EST
Civil Twilight 6:04 AM EST 5:52 PM EST
Nautical Twilight 5:32 AM EST 6:24 PM EST
Astronomical Twilight 4:59 AM EST 6:57 PM EST
Moon 12:39 PM EST (2/20) 2:54 AM EST (2/20)
Length of Visible Light 11h 47m
Length of Day
10h 50m
Waxing Gibbous, 76% of the Moon is Illuminated
Feb 20
Waxing Gibbous
Feb 25
Full
Mar 4
Last Quarter
Mar 11
New
Mar 19
First Quarter

Hourly Weather History & Observations

Time (EST) Temp. Windchill Dew Point Humidity Pressure Visibility Wind Dir Wind Speed Gust Speed Precip Events Conditions
12:54 AM 39.0 °F 31.8 °F 37.0 °F 93% 29.58 in - West 11.5 mph - N/A   Unknown
1:54 AM 37.9 °F 30.9 °F 37.0 °F 97% 29.57 in - WSW 10.4 mph - N/A   Unknown
2:54 AM 37.0 °F 29.8 °F 36.0 °F 96% 29.56 in - WSW 10.4 mph - N/A   Unknown
3:54 AM 36.0 °F 25.6 °F 34.0 °F 93% 29.56 in - West 18.4 mph 29.9 mph N/A   Unknown
4:54 AM 33.1 °F 23.4 °F 28.0 °F 82% 29.59 in - West 13.8 mph 21.9 mph N/A   Unknown
5:54 AM 30.9 °F 19.1 °F 24.1 °F 76% 29.61 in - West 18.4 mph 25.3 mph N/A   Unknown
6:54 AM 30.0 °F 16.9 °F 21.0 °F 69% 29.62 in - West 21.9 mph 31.1 mph N/A   Unknown
7:54 AM 28.9 °F 14.3 °F 17.1 °F 61% 29.65 in - West 26.5 mph 36.8 mph N/A   Unknown
8:54 AM 30.0 °F 16.3 °F 16.0 °F 56% 29.66 in - West 24.2 mph 35.7 mph N/A   Unknown
9:54 AM 32.0 °F 20.5 °F 17.1 °F 54% 29.66 in - West 18.4 mph 29.9 mph N/A   Unknown
10:54 AM 30.9 °F 18.1 °F 15.1 °F 52% 29.67 in - West 21.9 mph 33.4 mph N/A   Unknown
11:54 AM 30.9 °F 17.8 °F 14.0 °F 50% 29.66 in - West 23.0 mph 33.4 mph N/A   Unknown
12:54 PM 30.0 °F 18.7 °F 14.0 °F 51% 29.65 in - WNW 16.1 mph 31.1 mph N/A   Unknown
1:54 PM 30.0 °F 16.6 °F 12.0 °F 47% 29.64 in - WNW 23.0 mph 36.8 mph N/A   Unknown
2:54 PM 32.0 °F 21.6 °F 10.0 °F 40% 29.65 in - West 15.0 mph 40.3 mph N/A   Unknown
3:54 PM 30.9 °F 17.8 °F 9.0 °F 40% 29.66 in - West 23.0 mph 36.8 mph N/A   Unknown
4:54 PM 28.0 °F 13.3 °F 8.1 °F 43% 29.68 in - West 25.3 mph 39.1 mph N/A   Unknown
5:54 PM 26.1 °F 12.0 °F 8.1 °F 47% 29.71 in - West 20.7 mph 27.6 mph N/A   Unknown
6:54 PM 25.0 °F 10.6 °F 9.0 °F 51% 29.72 in - WNW 20.7 mph 32.2 mph N/A   Unknown
7:54 PM 25.0 °F 12.2 °F 9.0 °F 51% 29.74 in - West 16.1 mph 26.5 mph N/A   Unknown
8:54 PM 25.0 °F 10.2 °F 10.0 °F 53% 29.74 in - West 21.9 mph 29.9 mph N/A   Unknown
9:54 PM 24.1 °F 10.6 °F 10.0 °F 55% 29.76 in - West 17.3 mph 28.8 mph N/A   Unknown
10:54 PM 24.1 °F 11.0 °F 10.9 °F 57% 29.78 in - West 16.1 mph 31.1 mph N/A   Unknown
11:54 PM 24.1 °F 10.1 °F 12.0 °F 60% 29.79 in - West 18.4 mph 25.3 mph N/A   Unknown